LEGION 2

Last updated on Fri Apr 25 2025 00:02:26 GMT+0000 (Coordinated Universal Time)

1 59626U 24081B 25113.90227153 .00007869 00000+0 40397-3 0 9999 2 59626 97.5383 190.1475 0003398 241.3176 118.7716 15.16781097 53980
UTC large
Height (km)
Speed (km/s)
/
Latitude / Longitude
Inclination (degrees)
Orbital Period (minutes)
Azimuth
Elevation
Range (km)
Doppler Factor

Next 0 passes for location: London (51.5072 / 0.1276)

Sorry there are no passes over London.